Year,Month,Day,Hour,Minute,Value (Times are PST for temperature in C)
2020,05,09,00,00,15.00
2020,05,09,00,01,15.00
2020,05,09,00,02,14.90
2020,05,09,00,03,14.90
2020,05,09,00,04,14.80
2020,05,09,00,05,14.80
2020,05,09,00,06,14.80
2020,05,09,00,07,14.80
2020,05,09,00,08,14.70
2020,05,09,00,09,14.70
2020,05,09,00,10,14.70
2020,05,09,00,11,14.70
2020,05,09,00,12,14.60
2020,05,09,00,13,14.60
2020,05,09,00,14,14.60
2020,05,09,00,15,14.50
2020,05,09,00,16,14.50
2020,05,09,00,17,14.40
2020,05,09,00,18,14.40
2020,05,09,00,19,14.30
2020,05,09,00,20,14.30
2020,05,09,00,21,14.30
2020,05,09,00,22,14.20
2020,05,09,00,23,14.20
2020,05,09,00,24,14.20
2020,05,09,00,25,14.10
2020,05,09,00,26,14.10
2020,05,09,00,27,14.10
2020,05,09,00,28,14.10
2020,05,09,00,29,14.00
2020,05,09,00,30,14.00
2020,05,09,00,31,13.90
2020,05,09,00,32,13.90
2020,05,09,00,33,13.90
2020,05,09,00,34,13.90
2020,05,09,00,35,13.80
2020,05,09,00,36,13.80
2020,05,09,00,37,13.80
2020,05,09,00,38,13.70
2020,05,09,00,39,13.70
2020,05,09,00,40,13.70
2020,05,09,00,41,13.70
2020,05,09,00,42,13.60
2020,05,09,00,43,13.60
2020,05,09,00,44,13.60
2020,05,09,00,45,13.50
2020,05,09,00,46,13.50
2020,05,09,00,47,13.50
2020,05,09,00,48,13.50
2020,05,09,00,49,13.40
2020,05,09,00,50,13.40
2020,05,09,00,51,13.30
2020,05,09,00,52,13.30
2020,05,09,00,53,13.30
2020,05,09,00,54,13.30
2020,05,09,00,55,13.30
2020,05,09,00,56,13.30
2020,05,09,00,57,13.30
2020,05,09,00,58,13.30
2020,05,09,00,59,13.40
2020,05,09,01,00,13.30
2020,05,09,01,01,13.30
2020,05,09,01,02,13.30
2020,05,09,01,03,13.30
2020,05,09,01,04,13.30
2020,05,09,01,05,13.30
2020,05,09,01,06,13.30
2020,05,09,01,07,13.30
2020,05,09,01,08,13.30
2020,05,09,01,09,13.30
2020,05,09,01,10,13.20
2020,05,09,01,11,13.20
2020,05,09,01,12,13.20
2020,05,09,01,13,13.10
2020,05,09,01,14,13.10
2020,05,09,01,15,13.00
2020,05,09,01,16,13.00
2020,05,09,01,17,12.90
2020,05,09,01,18,12.90
2020,05,09,01,19,12.90
2020,05,09,01,20,12.80
2020,05,09,01,21,12.80
2020,05,09,01,22,12.80
2020,05,09,01,23,12.80
2020,05,09,01,24,12.70
2020,05,09,01,25,12.70
2020,05,09,01,26,12.70
2020,05,09,01,27,12.60
2020,05,09,01,28,12.60
2020,05,09,01,29,12.60
2020,05,09,01,30,12.60
2020,05,09,01,31,12.50
2020,05,09,01,32,12.50
2020,05,09,01,33,12.50
2020,05,09,01,34,12.40
2020,05,09,01,35,12.40
2020,05,09,01,36,12.40
2020,05,09,01,37,12.30
2020,05,09,01,38,12.30
2020,05,09,01,39,12.30
2020,05,09,01,40,12.30
2020,05,09,01,41,12.30
2020,05,09,01,42,12.20
2020,05,09,01,43,12.20
2020,05,09,01,44,12.20
2020,05,09,01,45,12.20
2020,05,09,01,46,12.10
2020,05,09,01,47,12.10
2020,05,09,01,48,12.10
2020,05,09,01,49,12.00
2020,05,09,01,50,12.00
2020,05,09,01,51,12.00
2020,05,09,01,52,12.00
2020,05,09,01,53,11.90
2020,05,09,01,54,11.90
2020,05,09,01,55,11.90
2020,05,09,01,56,11.90
2020,05,09,01,57,11.80
2020,05,09,01,58,11.80
2020,05,09,01,59,11.80
2020,05,09,02,00,11.80
2020,05,09,02,01,11.80
2020,05,09,02,02,11.70
2020,05,09,02,03,11.70
2020,05,09,02,04,11.70
2020,05,09,02,05,11.70
2020,05,09,02,06,11.70
2020,05,09,02,07,11.70
2020,05,09,02,08,11.80
2020,05,09,02,09,11.90
2020,05,09,02,10,11.90
2020,05,09,02,11,12.00
2020,05,09,02,12,12.10
2020,05,09,02,13,12.10
2020,05,09,02,14,12.10
2020,05,09,02,15,12.10
2020,05,09,02,16,12.10
2020,05,09,02,17,12.10
2020,05,09,02,18,12.20
2020,05,09,02,19,12.20
2020,05,09,02,20,12.20
2020,05,09,02,21,12.30
2020,05,09,02,22,12.30
2020,05,09,02,23,12.30
2020,05,09,02,24,12.40
2020,05,09,02,25,12.40
2020,05,09,02,26,12.40
2020,05,09,02,27,12.40
2020,05,09,02,28,12.40
2020,05,09,02,29,12.40
2020,05,09,02,30,12.50
2020,05,09,02,31,12.50
2020,05,09,02,32,12.50
2020,05,09,02,33,12.50
2020,05,09,02,34,12.50
2020,05,09,02,35,12.50
2020,05,09,02,36,12.60
2020,05,09,02,37,12.60
2020,05,09,02,38,12.70
2020,05,09,02,39,12.70
2020,05,09,02,40,12.70
2020,05,09,02,41,12.70
2020,05,09,02,42,12.70
2020,05,09,02,43,12.70
2020,05,09,02,44,12.70
2020,05,09,02,45,12.60
2020,05,09,02,46,12.60
2020,05,09,02,47,12.60
2020,05,09,02,48,12.70
2020,05,09,02,49,12.70
2020,05,09,02,50,12.70
2020,05,09,02,51,12.70
2020,05,09,02,52,12.70
2020,05,09,02,53,12.70
2020,05,09,02,54,12.70
2020,05,09,02,55,12.70
2020,05,09,02,56,12.70
2020,05,09,02,57,12.70
2020,05,09,02,58,12.70
2020,05,09,02,59,12.70
2020,05,09,03,00,12.70
2020,05,09,03,01,12.70
2020,05,09,03,02,12.60
2020,05,09,03,03,12.60
2020,05,09,03,04,12.60
2020,05,09,03,05,12.60
2020,05,09,03,06,12.60
2020,05,09,03,07,12.70
2020,05,09,03,08,12.70
2020,05,09,03,09,12.70
2020,05,09,03,10,12.70
2020,05,09,03,11,12.80
2020,05,09,03,12,12.80
2020,05,09,03,13,12.90
2020,05,09,03,14,12.90
2020,05,09,03,15,13.00
2020,05,09,03,16,13.10
2020,05,09,03,17,13.10
2020,05,09,03,18,13.20
2020,05,09,03,19,13.20
2020,05,09,03,20,13.30
2020,05,09,03,21,13.30
2020,05,09,03,22,13.30
2020,05,09,03,23,13.30
2020,05,09,03,24,13.30
2020,05,09,03,25,13.30
2020,05,09,03,26,13.30
2020,05,09,03,27,13.20
2020,05,09,03,28,13.20
2020,05,09,03,29,13.20
2020,05,09,03,30,13.10
2020,05,09,03,31,13.00
2020,05,09,03,32,13.00
2020,05,09,03,33,12.90
2020,05,09,03,34,12.90
2020,05,09,03,35,12.80
2020,05,09,03,36,12.80
2020,05,09,03,37,12.70
2020,05,09,03,38,12.70
2020,05,09,03,39,12.70
2020,05,09,03,40,12.60
2020,05,09,03,41,12.60
2020,05,09,03,42,12.60
2020,05,09,03,43,12.60
2020,05,09,03,44,12.60
2020,05,09,03,45,12.70
2020,05,09,03,46,12.70
2020,05,09,03,47,12.70
2020,05,09,03,48,12.70
2020,05,09,03,49,12.70
2020,05,09,03,50,12.70
2020,05,09,03,51,12.70
2020,05,09,03,52,12.70
2020,05,09,03,53,12.70
2020,05,09,03,54,12.70
2020,05,09,03,55,12.60
2020,05,09,03,56,12.60
2020,05,09,03,57,12.50
2020,05,09,03,58,12.50
2020,05,09,03,59,12.40
2020,05,09,04,00,12.40
2020,05,09,04,01,12.30
2020,05,09,04,02,12.30
2020,05,09,04,03,12.30
2020,05,09,04,04,12.20
2020,05,09,04,05,12.20
2020,05,09,04,06,12.20
2020,05,09,04,07,12.20
2020,05,09,04,08,12.10
2020,05,09,04,09,12.10
2020,05,09,04,10,12.00
2020,05,09,04,11,12.00
2020,05,09,04,12,12.00
2020,05,09,04,13,11.90
2020,05,09,04,14,11.90
2020,05,09,04,15,11.90
2020,05,09,04,16,11.90
2020,05,09,04,17,11.80
2020,05,09,04,18,11.80
2020,05,09,04,19,11.80
2020,05,09,04,20,11.80
2020,05,09,04,21,11.70
2020,05,09,04,22,11.70
2020,05,09,04,23,11.70
2020,05,09,04,24,11.60
2020,05,09,04,25,11.60
2020,05,09,04,26,11.60
2020,05,09,04,27,11.50
2020,05,09,04,28,11.50
2020,05,09,04,29,11.50
2020,05,09,04,30,11.50
2020,05,09,04,31,11.40
2020,05,09,04,32,11.50
2020,05,09,04,33,11.50
2020,05,09,04,34,11.50
2020,05,09,04,35,11.60
2020,05,09,04,36,11.60
2020,05,09,04,37,11.60
2020,05,09,04,38,11.70
2020,05,09,04,39,11.80
2020,05,09,04,40,11.90
2020,05,09,04,41,11.90
2020,05,09,04,42,12.00
2020,05,09,04,43,12.10
2020,05,09,04,44,12.20
2020,05,09,04,45,12.30
2020,05,09,04,46,12.50
2020,05,09,04,47,12.70
2020,05,09,04,48,12.80
2020,05,09,04,49,12.80
2020,05,09,04,50,12.80
2020,05,09,04,51,12.80
2020,05,09,04,52,12.80
2020,05,09,04,53,12.80
2020,05,09,04,54,12.80
2020,05,09,04,55,12.80
2020,05,09,04,56,12.80
2020,05,09,04,57,12.90
2020,05,09,04,58,12.90
2020,05,09,04,59,13.00
2020,05,09,05,00,13.20
2020,05,09,05,01,13.40
2020,05,09,05,02,13.60
2020,05,09,05,03,13.80
2020,05,09,05,04,14.00
2020,05,09,05,05,14.20
2020,05,09,05,06,14.40
2020,05,09,05,07,14.60
2020,05,09,05,08,14.70
2020,05,09,05,09,14.90
2020,05,09,05,10,15.00
2020,05,09,05,11,15.10
2020,05,09,05,12,15.20
2020,05,09,05,13,15.20
2020,05,09,05,14,15.30
2020,05,09,05,15,15.30
2020,05,09,05,16,15.30
2020,05,09,05,17,15.30
2020,05,09,05,18,15.30
2020,05,09,05,19,15.30
2020,05,09,05,20,15.20
2020,05,09,05,21,15.20
2020,05,09,05,22,15.10
2020,05,09,05,23,15.10
2020,05,09,05,24,15.00
2020,05,09,05,25,14.90
2020,05,09,05,26,14.80
2020,05,09,05,27,14.80
2020,05,09,05,28,14.80
2020,05,09,05,29,14.70
2020,05,09,05,30,14.70
2020,05,09,05,31,14.70
2020,05,09,05,32,14.70
2020,05,09,05,33,14.70
2020,05,09,05,34,14.70
2020,05,09,05,35,14.70
2020,05,09,05,36,14.70
2020,05,09,05,37,14.70
2020,05,09,05,38,14.70
2020,05,09,05,39,14.60
2020,05,09,05,40,14.60
2020,05,09,05,41,14.60
2020,05,09,05,42,14.50
2020,05,09,05,43,14.40
2020,05,09,05,44,14.40
2020,05,09,05,45,14.30
2020,05,09,05,46,14.20
2020,05,09,05,47,14.10
2020,05,09,05,48,14.00
2020,05,09,05,49,13.90
2020,05,09,05,50,13.80
2020,05,09,05,51,13.80
2020,05,09,05,52,13.70
2020,05,09,05,53,13.60
2020,05,09,05,54,13.40
2020,05,09,05,55,13.30
2020,05,09,05,56,13.20
2020,05,09,05,57,13.10
2020,05,09,05,58,13.10
2020,05,09,05,59,13.00
2020,05,09,06,00,13.00
2020,05,09,06,01,12.90
2020,05,09,06,02,12.90
2020,05,09,06,03,12.90
2020,05,09,06,04,12.90
2020,05,09,06,05,12.90
2020,05,09,06,06,13.00
2020,05,09,06,07,13.00
2020,05,09,06,08,13.10
2020,05,09,06,09,13.20
2020,05,09,06,10,13.30
2020,05,09,06,11,13.30
2020,05,09,06,12,13.40
2020,05,09,06,13,13.40
2020,05,09,06,14,13.40
2020,05,09,06,15,13.40
2020,05,09,06,16,13.50
2020,05,09,06,17,13.60
2020,05,09,06,18,13.60
2020,05,09,06,19,13.70
2020,05,09,06,20,13.80
2020,05,09,06,21,14.10
2020,05,09,06,22,14.40
2020,05,09,06,23,14.60
2020,05,09,06,24,14.90
2020,05,09,06,25,15.10
2020,05,09,06,26,15.20
2020,05,09,06,27,15.10
2020,05,09,06,28,15.10
2020,05,09,06,29,15.10
2020,05,09,06,30,15.10
2020,05,09,06,31,15.00
2020,05,09,06,32,15.00
2020,05,09,06,33,14.90
2020,05,09,06,34,14.90
2020,05,09,06,35,14.90
2020,05,09,06,36,15.00
2020,05,09,06,37,15.00
2020,05,09,06,38,15.10
2020,05,09,06,39,15.20
2020,05,09,06,40,15.20
2020,05,09,06,41,15.20
2020,05,09,06,42,15.20
2020,05,09,06,43,15.20
2020,05,09,06,44,15.20
2020,05,09,06,45,15.10
2020,05,09,06,46,15.10
2020,05,09,06,47,15.10
2020,05,09,06,48,15.10
2020,05,09,06,49,15.10
2020,05,09,06,50,15.10
2020,05,09,06,51,15.10
2020,05,09,06,52,15.10
2020,05,09,06,53,15.10
2020,05,09,06,54,15.20
2020,05,09,06,55,15.30
2020,05,09,06,56,15.40
2020,05,09,06,57,15.50
2020,05,09,06,58,15.60
2020,05,09,06,59,15.60
2020,05,09,07,00,15.70
2020,05,09,07,01,15.70
2020,05,09,07,02,15.80
2020,05,09,07,03,15.80
2020,05,09,07,04,15.90
2020,05,09,07,05,16.00
2020,05,09,07,06,16.20
2020,05,09,07,07,16.40
2020,05,09,07,08,16.60
2020,05,09,07,09,16.80
2020,05,09,07,10,16.90
2020,05,09,07,11,17.10
2020,05,09,07,12,17.20
2020,05,09,07,13,17.30
2020,05,09,07,14,17.30
2020,05,09,07,15,17.40
2020,05,09,07,16,17.50
2020,05,09,07,17,17.60
2020,05,09,07,18,17.60
2020,05,09,07,19,17.70
2020,05,09,07,20,17.80
2020,05,09,07,21,17.80
2020,05,09,07,22,17.80
2020,05,09,07,23,17.90
2020,05,09,07,24,17.90
2020,05,09,07,25,17.90
2020,05,09,07,26,18.00
2020,05,09,07,27,18.10
2020,05,09,07,28,18.10
2020,05,09,07,29,18.20
2020,05,09,07,30,18.20
2020,05,09,07,31,18.20
2020,05,09,07,32,18.30
2020,05,09,07,33,18.30
2020,05,09,07,34,18.30
2020,05,09,07,35,18.30
2020,05,09,07,36,18.30
2020,05,09,07,37,18.30
2020,05,09,07,38,18.40
2020,05,09,07,39,18.40
2020,05,09,07,40,18.40
2020,05,09,07,41,18.40
2020,05,09,07,42,18.40
2020,05,09,07,43,18.40
2020,05,09,07,44,18.40
2020,05,09,07,45,18.50
2020,05,09,07,46,18.50
2020,05,09,07,47,18.50
2020,05,09,07,48,18.60
2020,05,09,07,49,18.60
2020,05,09,07,50,18.70
2020,05,09,07,51,18.70
2020,05,09,07,52,18.80
2020,05,09,07,53,18.80
2020,05,09,07,54,18.80
2020,05,09,07,55,18.90
2020,05,09,07,56,18.90
2020,05,09,07,57,18.90
2020,05,09,07,58,18.90
2020,05,09,07,59,18.90
2020,05,09,08,00,18.90
2020,05,09,08,01,19.00
2020,05,09,08,02,19.00
2020,05,09,08,03,19.10
2020,05,09,08,04,19.00
2020,05,09,08,05,19.10
2020,05,09,08,06,19.10
2020,05,09,08,07,19.10
2020,05,09,08,08,19.10
2020,05,09,08,09,19.10
2020,05,09,08,10,19.10
2020,05,09,08,11,19.10
2020,05,09,08,12,19.10
2020,05,09,08,13,19.10
2020,05,09,08,14,19.20
2020,05,09,08,15,19.20
2020,05,09,08,16,19.20
2020,05,09,08,17,19.30
2020,05,09,08,18,19.30
2020,05,09,08,19,19.30
2020,05,09,08,20,19.40
2020,05,09,08,21,19.40
2020,05,09,08,22,19.40
2020,05,09,08,23,19.50
2020,05,09,08,24,19.40
2020,05,09,08,25,19.40
2020,05,09,08,26,19.40
2020,05,09,08,27,19.40
2020,05,09,08,28,19.40
2020,05,09,08,29,19.40
2020,05,09,08,30,19.40
2020,05,09,08,31,19.40
2020,05,09,08,32,19.40
2020,05,09,08,33,19.40
2020,05,09,08,34,19.40
2020,05,09,08,35,19.50
2020,05,09,08,36,19.50
2020,05,09,08,37,19.60
2020,05,09,08,38,19.60
2020,05,09,08,39,19.70
2020,05,09,08,40,19.70
2020,05,09,08,41,19.60
2020,05,09,08,42,19.70
2020,05,09,08,43,19.70
2020,05,09,08,44,19.70
2020,05,09,08,45,19.70
2020,05,09,08,46,19.80
2020,05,09,08,47,19.80
2020,05,09,08,48,19.80
2020,05,09,08,49,19.80
2020,05,09,08,50,19.80
2020,05,09,08,51,19.80
2020,05,09,08,52,19.80
2020,05,09,08,53,19.90
2020,05,09,08,54,20.00
2020,05,09,08,55,20.00
2020,05,09,08,56,20.10
2020,05,09,08,57,20.00
2020,05,09,08,58,20.00
2020,05,09,08,59,20.10
2020,05,09,09,00,20.10
2020,05,09,09,01,20.10
2020,05,09,09,02,20.20
2020,05,09,09,03,20.20
2020,05,09,09,04,20.20
2020,05,09,09,05,20.10
2020,05,09,09,06,20.10
2020,05,09,09,07,20.10
2020,05,09,09,08,20.20
2020,05,09,09,09,20.20
2020,05,09,09,10,20.30
2020,05,09,09,11,20.30
2020,05,09,09,12,20.30
2020,05,09,09,13,20.30
2020,05,09,09,14,20.30
2020,05,09,09,15,20.20
2020,05,09,09,16,20.20
2020,05,09,09,17,20.20
2020,05,09,09,18,20.20
2020,05,09,09,19,20.20
2020,05,09,09,20,20.20
2020,05,09,09,21,20.20
2020,05,09,09,22,20.30
2020,05,09,09,23,20.30
2020,05,09,09,24,20.30
2020,05,09,09,25,20.30
2020,05,09,09,26,20.30
2020,05,09,09,27,20.30
2020,05,09,09,28,20.30
2020,05,09,09,29,20.30
2020,05,09,09,30,20.30
2020,05,09,09,31,20.30
2020,05,09,09,32,20.30
2020,05,09,09,33,20.30
2020,05,09,09,34,20.40
2020,05,09,09,35,20.40
2020,05,09,09,36,20.40
2020,05,09,09,37,20.40
2020,05,09,09,38,20.50
2020,05,09,09,39,20.50
2020,05,09,09,40,20.50
2020,05,09,09,41,20.50
2020,05,09,09,42,20.50
2020,05,09,09,43,20.60
2020,05,09,09,44,20.60
2020,05,09,09,45,20.60
2020,05,09,09,46,20.60
2020,05,09,09,47,20.60
2020,05,09,09,48,20.60
2020,05,09,09,49,20.60
2020,05,09,09,50,20.60
2020,05,09,09,51,20.60
2020,05,09,09,52,20.60
2020,05,09,09,53,20.60
2020,05,09,09,54,20.60
2020,05,09,09,55,20.50
2020,05,09,09,56,20.50
2020,05,09,09,57,20.50
2020,05,09,09,58,20.50
2020,05,09,09,59,20.50
2020,05,09,10,00,20.60
2020,05,09,10,01,20.60
2020,05,09,10,02,20.70
2020,05,09,10,03,20.70
2020,05,09,10,04,20.70
2020,05,09,10,05,20.70
2020,05,09,10,06,20.70
2020,05,09,10,07,20.80
2020,05,09,10,08,20.80
2020,05,09,10,09,20.80
2020,05,09,10,10,20.80
2020,05,09,10,11,20.80
2020,05,09,10,12,20.90
2020,05,09,10,13,20.90
2020,05,09,10,14,20.90
2020,05,09,10,15,20.90
2020,05,09,10,16,20.90
2020,05,09,10,17,20.90
2020,05,09,10,18,20.90
2020,05,09,10,19,20.90
2020,05,09,10,20,20.90
2020,05,09,10,21,21.00
2020,05,09,10,22,21.10
2020,05,09,10,23,21.10
2020,05,09,10,24,21.10
2020,05,09,10,25,21.00
2020,05,09,10,26,21.00
2020,05,09,10,27,21.00
2020,05,09,10,28,21.00
2020,05,09,10,29,21.10
2020,05,09,10,30,21.20
2020,05,09,10,31,21.30
2020,05,09,10,32,21.40
2020,05,09,10,33,21.40
2020,05,09,10,34,21.40
2020,05,09,10,35,21.40
2020,05,09,10,36,21.40
2020,05,09,10,37,21.40
2020,05,09,10,38,21.40
2020,05,09,10,39,21.30
2020,05,09,10,40,21.30
2020,05,09,10,41,21.30
2020,05,09,10,42,21.30
2020,05,09,10,43,21.30
2020,05,09,10,44,21.30
2020,05,09,10,45,21.40
2020,05,09,10,46,21.50
2020,05,09,10,47,21.60
2020,05,09,10,48,21.70
2020,05,09,10,49,21.80
2020,05,09,10,50,21.80
2020,05,09,10,51,21.80
2020,05,09,10,52,21.80
2020,05,09,10,53,21.80
2020,05,09,10,54,21.90
2020,05,09,10,55,22.00
2020,05,09,10,56,22.00
2020,05,09,10,57,22.10
2020,05,09,10,58,22.20
2020,05,09,10,59,22.20
2020,05,09,11,00,22.20
2020,05,09,11,01,22.20
2020,05,09,11,02,22.10
2020,05,09,11,03,22.00
2020,05,09,11,04,21.90
2020,05,09,11,05,22.00
2020,05,09,11,06,22.00
2020,05,09,11,07,22.10
2020,05,09,11,08,22.20
2020,05,09,11,09,22.20
2020,05,09,11,10,22.20
2020,05,09,11,11,22.20
2020,05,09,11,12,22.20
2020,05,09,11,13,22.20
2020,05,09,11,14,22.20
2020,05,09,11,15,22.30
2020,05,09,11,16,22.30
2020,05,09,11,17,22.40
2020,05,09,11,18,22.40
2020,05,09,11,19,22.50
2020,05,09,11,20,22.50
2020,05,09,11,21,22.60
2020,05,09,11,22,22.60
2020,05,09,11,23,22.50
2020,05,09,11,24,22.50
2020,05,09,11,25,22.50
2020,05,09,11,26,22.40
2020,05,09,11,27,22.30
2020,05,09,11,28,22.30
2020,05,09,11,29,22.20
2020,05,09,11,30,22.20
2020,05,09,11,31,22.20
2020,05,09,11,32,22.10
2020,05,09,11,33,22.10
2020,05,09,11,34,22.20
2020,05,09,11,35,22.20
2020,05,09,11,36,22.30
2020,05,09,11,37,22.40
2020,05,09,11,38,22.50
2020,05,09,11,39,22.50
2020,05,09,11,40,22.50
2020,05,09,11,41,22.60
2020,05,09,11,42,22.60
2020,05,09,11,43,22.60
2020,05,09,11,44,22.60
2020,05,09,11,45,22.50
2020,05,09,11,46,22.50
2020,05,09,11,47,22.40
2020,05,09,11,48,22.30
2020,05,09,11,49,22.30
2020,05,09,11,50,22.20
2020,05,09,11,51,22.20
2020,05,09,11,52,22.20
2020,05,09,11,53,22.20
2020,05,09,11,54,22.20
2020,05,09,11,55,22.30
2020,05,09,11,56,22.30
2020,05,09,11,57,22.40
2020,05,09,11,58,22.40
2020,05,09,11,59,22.40
2020,05,09,12,00,22.40
2020,05,09,12,01,22.40
2020,05,09,12,02,22.40
2020,05,09,12,03,22.40
2020,05,09,12,04,22.40
2020,05,09,12,05,22.40
2020,05,09,12,06,22.40
2020,05,09,12,07,22.30
2020,05,09,12,08,22.40
2020,05,09,12,09,22.40
2020,05,09,12,10,22.40
2020,05,09,12,11,22.30
2020,05,09,12,12,22.30
2020,05,09,12,13,22.30
2020,05,09,12,14,22.30
2020,05,09,12,15,22.40
2020,05,09,12,16,22.40
2020,05,09,12,17,22.50
2020,05,09,12,18,22.60
2020,05,09,12,19,22.70
2020,05,09,12,20,22.80
2020,05,09,12,21,22.80
2020,05,09,12,22,22.80
2020,05,09,12,23,22.90
2020,05,09,12,24,22.90
2020,05,09,12,25,23.00
2020,05,09,12,26,23.00
2020,05,09,12,27,23.00
2020,05,09,12,28,22.90
2020,05,09,12,29,22.90
2020,05,09,12,30,22.80
2020,05,09,12,31,22.80
2020,05,09,12,32,22.80
2020,05,09,12,33,22.80
2020,05,09,12,34,22.80
2020,05,09,12,35,22.90
2020,05,09,12,36,23.00
2020,05,09,12,37,23.00
2020,05,09,12,38,23.00
2020,05,09,12,39,23.00
2020,05,09,12,40,23.00
2020,05,09,12,41,23.10
2020,05,09,12,42,23.10
2020,05,09,12,43,23.20
2020,05,09,12,44,23.30
2020,05,09,12,45,23.30
2020,05,09,12,46,23.30
2020,05,09,12,47,23.30
2020,05,09,12,48,23.40
2020,05,09,12,49,23.40
2020,05,09,12,50,23.40
2020,05,09,12,51,23.40
2020,05,09,12,52,23.40
2020,05,09,12,53,23.50
2020,05,09,12,54,23.50
2020,05,09,12,55,23.60
2020,05,09,12,56,23.60
2020,05,09,12,57,23.70
2020,05,09,12,58,23.70
2020,05,09,12,59,23.70
2020,05,09,13,00,23.70
2020,05,09,13,01,23.60
2020,05,09,13,02,23.60
2020,05,09,13,03,23.70
2020,05,09,13,04,23.70
2020,05,09,13,05,23.70
2020,05,09,13,06,23.80
2020,05,09,13,07,23.90
2020,05,09,13,08,23.90
2020,05,09,13,09,23.90
2020,05,09,13,10,24.00
2020,05,09,13,11,24.00
2020,05,09,13,12,24.10
2020,05,09,13,13,24.10
2020,05,09,13,14,24.10
2020,05,09,13,15,24.10
2020,05,09,13,16,24.10
2020,05,09,13,17,24.10
2020,05,09,13,18,24.10
2020,05,09,13,19,24.20
2020,05,09,13,20,24.30
2020,05,09,13,21,24.40
2020,05,09,13,22,24.50
2020,05,09,13,23,24.50
2020,05,09,13,24,24.50
2020,05,09,13,25,24.40
2020,05,09,13,26,24.40
2020,05,09,13,27,24.30
2020,05,09,13,28,24.30
2020,05,09,13,29,24.30
2020,05,09,13,30,24.40
2020,05,09,13,31,24.40
2020,05,09,13,32,24.40
2020,05,09,13,33,24.30
2020,05,09,13,34,24.20
2020,05,09,13,35,24.30
2020,05,09,13,36,24.30
2020,05,09,13,37,24.40
2020,05,09,13,38,24.50
2020,05,09,13,39,24.50
2020,05,09,13,40,24.60
2020,05,09,13,41,24.60
2020,05,09,13,42,24.70
2020,05,09,13,43,24.70
2020,05,09,13,44,24.70
2020,05,09,13,45,24.70
2020,05,09,13,46,24.70
2020,05,09,13,47,24.80
2020,05,09,13,48,24.90
2020,05,09,13,49,25.00
2020,05,09,13,50,25.10
2020,05,09,13,51,25.20
2020,05,09,13,52,25.20
2020,05,09,13,53,25.30
2020,05,09,13,54,25.20
2020,05,09,13,55,25.20
2020,05,09,13,56,25.10
2020,05,09,13,57,25.00
2020,05,09,13,58,24.90
2020,05,09,13,59,24.80
2020,05,09,14,00,24.70
2020,05,09,14,01,24.70
2020,05,09,14,02,24.70
2020,05,09,14,03,24.70
2020,05,09,14,04,24.70
2020,05,09,14,05,24.70
2020,05,09,14,06,24.70
2020,05,09,14,07,24.70
2020,05,09,14,08,24.70
2020,05,09,14,09,24.80
2020,05,09,14,10,24.80
2020,05,09,14,11,24.90
2020,05,09,14,12,24.90
2020,05,09,14,13,24.80
2020,05,09,14,14,24.70
2020,05,09,14,15,24.70
2020,05,09,14,16,24.70
2020,05,09,14,17,24.70
2020,05,09,14,18,24.70
2020,05,09,14,19,24.70
2020,05,09,14,20,24.70
2020,05,09,14,21,24.70
2020,05,09,14,22,24.70
2020,05,09,14,23,24.80
2020,05,09,14,24,24.80
2020,05,09,14,25,24.80
2020,05,09,14,26,24.80
2020,05,09,14,27,24.80
2020,05,09,14,28,24.90
2020,05,09,14,29,24.90
2020,05,09,14,30,24.90
2020,05,09,14,31,25.00
2020,05,09,14,32,25.00
2020,05,09,14,33,25.00
2020,05,09,14,34,25.00
2020,05,09,14,35,25.00
2020,05,09,14,36,25.00
2020,05,09,14,37,25.10
2020,05,09,14,38,25.10
2020,05,09,14,39,25.00
2020,05,09,14,40,24.90
2020,05,09,14,41,24.90
2020,05,09,14,42,24.90
2020,05,09,14,43,25.00
2020,05,09,14,44,25.10
2020,05,09,14,45,25.20
2020,05,09,14,46,25.20
2020,05,09,14,47,25.30
2020,05,09,14,48,25.30
2020,05,09,14,49,25.30
2020,05,09,14,50,25.30
2020,05,09,14,51,25.30
2020,05,09,14,52,25.30
2020,05,09,14,53,25.30
2020,05,09,14,54,25.30
2020,05,09,14,55,25.30
2020,05,09,14,56,25.30
2020,05,09,14,57,25.30
2020,05,09,14,58,25.30
2020,05,09,14,59,25.30
2020,05,09,15,00,25.40
2020,05,09,15,01,25.40
2020,05,09,15,02,25.40
2020,05,09,15,03,25.40
2020,05,09,15,04,25.40
2020,05,09,15,05,25.30
2020,05,09,15,06,25.20
2020,05,09,15,07,25.20
2020,05,09,15,08,25.10
2020,05,09,15,09,25.10
2020,05,09,15,10,25.10
2020,05,09,15,11,25.10
2020,05,09,15,12,25.10
2020,05,09,15,13,25.10
2020,05,09,15,14,25.10
2020,05,09,15,15,25.10
2020,05,09,15,16,25.10
2020,05,09,15,17,25.10
2020,05,09,15,18,25.10
2020,05,09,15,19,25.10
2020,05,09,15,20,25.20
2020,05,09,15,21,25.10
2020,05,09,15,22,25.10
2020,05,09,15,23,25.10
2020,05,09,15,24,25.10
2020,05,09,15,25,25.20
2020,05,09,15,26,25.10
2020,05,09,15,27,25.10
2020,05,09,15,28,25.00
2020,05,09,15,29,25.00
2020,05,09,15,30,24.90
2020,05,09,15,31,25.00
2020,05,09,15,32,25.10
2020,05,09,15,33,25.10
2020,05,09,15,34,25.10
2020,05,09,15,35,25.20
2020,05,09,15,36,25.20
2020,05,09,15,37,25.20
2020,05,09,15,38,25.20
2020,05,09,15,39,25.20
2020,05,09,15,40,25.30
2020,05,09,15,41,25.40
2020,05,09,15,42,25.50
2020,05,09,15,43,25.50
2020,05,09,15,44,25.50
2020,05,09,15,45,25.40
2020,05,09,15,46,25.40
2020,05,09,15,47,25.30
2020,05,09,15,48,25.30
2020,05,09,15,49,25.30
2020,05,09,15,50,25.30
2020,05,09,15,51,25.20
2020,05,09,15,52,25.20
2020,05,09,15,53,25.20
2020,05,09,15,54,25.20
2020,05,09,15,55,25.20
2020,05,09,15,56,25.10
2020,05,09,15,57,25.20
2020,05,09,15,58,25.20
2020,05,09,15,59,25.20
2020,05,09,16,00,25.20
2020,05,09,16,01,25.20
2020,05,09,16,02,25.20
2020,05,09,16,03,25.20
2020,05,09,16,04,25.20
2020,05,09,16,05,25.20
2020,05,09,16,06,25.20
2020,05,09,16,07,25.20
2020,05,09,16,08,25.20
2020,05,09,16,09,25.30
2020,05,09,16,10,25.30
2020,05,09,16,11,25.30
2020,05,09,16,12,25.30
2020,05,09,16,13,25.30
2020,05,09,16,14,25.40
2020,05,09,16,15,25.40
2020,05,09,16,16,25.40
2020,05,09,16,17,25.50
2020,05,09,16,18,25.50
2020,05,09,16,19,25.60
2020,05,09,16,20,25.60
2020,05,09,16,21,25.70
2020,05,09,16,22,25.70
2020,05,09,16,23,25.70
2020,05,09,16,24,25.80
2020,05,09,16,25,25.80
2020,05,09,16,26,25.80
2020,05,09,16,27,25.90
2020,05,09,16,28,25.90
2020,05,09,16,29,25.90
2020,05,09,16,30,25.80
2020,05,09,16,31,25.90
2020,05,09,16,32,25.90
2020,05,09,16,33,25.90
2020,05,09,16,34,26.00
2020,05,09,16,35,26.00
2020,05,09,16,36,26.10
2020,05,09,16,37,26.10
2020,05,09,16,38,26.10
2020,05,09,16,39,26.00
2020,05,09,16,40,26.10
2020,05,09,16,41,26.10
2020,05,09,16,42,26.10
2020,05,09,16,43,26.20
2020,05,09,16,44,26.20
2020,05,09,16,45,26.20
2020,05,09,16,46,26.20
2020,05,09,16,47,26.20
2020,05,09,16,48,26.20
2020,05,09,16,49,26.20
2020,05,09,16,50,26.30
2020,05,09,16,51,26.30
2020,05,09,16,52,26.20
2020,05,09,16,53,26.20
2020,05,09,16,54,26.20
2020,05,09,16,55,26.20
2020,05,09,16,56,26.30
2020,05,09,16,57,26.40
2020,05,09,16,58,26.40
2020,05,09,16,59,26.50
2020,05,09,17,00,26.60
2020,05,09,17,01,26.60
2020,05,09,17,02,26.60
2020,05,09,17,03,26.60
2020,05,09,17,04,26.60
2020,05,09,17,05,26.50
2020,05,09,17,06,26.40
2020,05,09,17,07,26.30
2020,05,09,17,08,26.30
2020,05,09,17,09,26.30
2020,05,09,17,10,26.20
2020,05,09,17,11,26.20
2020,05,09,17,12,26.20
2020,05,09,17,13,26.10
2020,05,09,17,14,26.10
2020,05,09,17,15,26.00
2020,05,09,17,16,26.00
2020,05,09,17,17,26.00
2020,05,09,17,18,26.00
2020,05,09,17,19,26.00